Location: Enborne
(51.3833°N, 1.3667°W)
Time: 01:10:58
(UTC+00:00)

Cosmos 2150 Rocket - Pass Details

Date: 18 September 2020
Orbit: 749 x 808 km, 74.0° (Epoch: 30 October)

Event Time Altitude Azimuth Distance (km) Brightness Sun altitude
Rises 20:27:48 0° 205° (SSW) 3,267 7.2 -20.9°
Reaches altitude 10° 20:30:10 10° 206° (SSW) 2,351 6.5 -21.2°
Maximum altitude 20:35:32 83° 294° (WNW) 813 4.1 -21.9°
Drops below altitude 10° 20:41:01 10° 24° (NNE) 2,397 6.7 -22.6°
Sets 20:43:27 0° 25° (NNE) 3,336 7.4 -23.0°
